CAPE
3 0 0 0 7 0 0 0 10 0 0 0 0 0 0 0 0 0 0 0 0 0 0 0 0 0 0 0 0 0 0 0 0 0 0 0 0 0 0 0 0 0 0 0
0 0 0 0 3 0 0 11 1 0 0 0 0 0 0 0 0 0 0 0 0 0 0 0 0 0 0 0 0 0 0 0 0 0 0 0 0 0 0 0 0 0 0 0
4 4 0 0 0 19 1 0 12 1 1 2 1 0 1 1 0 0 0 0 0 0 0 0 0 0 0 0 0 0 0 0 0 0 0 0 0 0 0 0 0 0 0 0
3 0 8 0 0 61 5 0 10 0 0 0 1 1 0 0 0 0 1 0 1 0 2 0 0 0 0 0 0 0 0 0 0 0 0 0 0 0 0 0 0 0 0 0
0 0 17 0 0 47 26 21 13 0 1 0 0 0 0 0 0 0 0 0 0 0 1 0 0 0 0 0 0 0 0 0 0 0 0 0 0 0 0 0 0 0 0 0
0 0 0 12 0 42 15 0 0 14 5 0 0 0 0 0 0 0 1 1 0 0 0 1 2 1 0 0 0 0 0 0 0 0 0 0 0 0 0 0 0 0 0 0
0 0 0 15 8 31 28 5 6 15 13 0 0 0 0 0 0 0 0 0 0 0 0 0 0 0 0 0 0 0 0 0 0 0 0 0 0 0 0 0 0 0 0 0
0 0 4 0 41 27 21 0 17 11 0 1 0 0 0 1 1 0 0 0 0 0 0 0 0 0 0 0 0 0 0 0 0 0 0 0 0 0 0 0 0 0 0 0
0 0 0 0 32 16 12 1 1 4 0 0 0 1 0 0 0 0 0 0 0 0 0 0 0 0 0 0 0 0 0 0 0 0 0 0 0 0 0 0 0 0 0 0
0 0 0 0 20 37 2 1 0 16 1 0 2 2 0 0 0 0 0 0 0 0 0 0 0 0 0 0 0 0 0 0 0 0 0 0 0 0 0 0 0 0 0 0
0 0 0 2 0 23 13 0 0 1 0 0 0 0 0 0 0 0 0 0 0 0 0 0 0 0 0 0 0 0 0 0 0 0 0 0 0 0 0 0 0 0 0 0
0 0 0 1 0 15 9 0 0 0 0 0 1 1 1 0 0 0 0 0 0 0 0 0 0 0 0 0 0 0 0 0 0 0 0 0 0 0 0 0 0 0 0 0
0 6 23 10 1 19 7 0 0 0 0 0 1 1 0 0 1 1 0 0 0 0 0 0 0 0 0 0 0 0 0 0 0 0 0 0 0 0 0 0 0 0 0 0
17 21 26 10 17 22 0 0 0 0 0 1 0 0 0 0 0 0 0 0 0 0 0 0 0 0 0 0 0 0 0 0 0 0 0 0 0 0 0 0 0 0 0 0
46 3 0 19 22 3 0 0 0 0 0 0 0 0 0 0 0 0 0 0 0 0 0 0 0 0 0 0 0 0 0 0 0 0 0 0 0 0 0 0 0 0 0 0
14 18 67 47 1 0 0 0 0 0 0 0 0 0 0 0 0 0 0 0 0 0 0 0 0 0 0 0 0 0 0 0 0 0 0 0 0 0 0 0 0 0 0 0
3 3 4 3 1 0 0 0 0 0 0 0 0 0 0 0 0 0 0 0 0 0 0 0 0 0 0 0 0 0 0 0 0 0 0 0 0 0 0 0 0 0 0 0
2 1 1 1 0 0 0 0 0 0 0 0 0 0 0 0 0 0 0 0 0 0 0 0 0 0 0 0 0 0 0 0 0 0 0 0 0 0 0 0 0 0 0 0
0 0 0 0 0 0 0 0 0 0 0 0 0 0 0 0 0 0 0 0 0 0 0 0 0 0 0 0 0 0 0 0 0 0 0 0 0 0 0 0 0 0 0 0
0 0 0 0 0 0 0 0 0 0 0 0 0 0 0 0 0 0 0 0 0 0 0 0 0 0 0 0 0 0 0 0 0 0 0 0 0 0 0 0 0 0 0 0
0 0 0 0 0 0 0 0 0 0 0 0 0 0 0 0 0 0 0 0 0 0 0 0 0 0 0 0 0 0 0 0 0 0 0 0 0 0 0 0 0 0 0 0
0 0 0 0 0 0 0 0 0 0 0 0 0 0 0 0 0 0 0 0 0 0 0 0 0 0 0 0 0 0 0 0 0 0 0 0 0 0 0 0 0 0 0 0
0 0 0 0 0 0 0 0 0 0 0 0 0 0 0 0 0 0 0 0 0 0 0 0 0 0 0 0 0 0 0 0 0 0 0 0 0 0 0 0 0 0 0 0
0 0 0 0 0 0 0 0 0 0 0 0 0 0 0 0 0 0 0 0 0 0 0 0 0 0 0 0 0 0 0 0 0 0 0 0 0 0 0 0 0 0 0 0
0 0 0 0 0 0 0 0 0 0 0 0 0 0 0 0 0 0 0 0 0 0 0 0 0 0 0 0 0 0 0 0 0 0 0 0 0 0 0 0 0 0 0 0
0 0 0 0 0 0 0 0 0 0 0 0 0 0 0 0 0 0 0 0 0 0 0 0 0 0 0 0 0 0 0 0 0 0 0 0 0 0 0 0 0 0 0 0
0 0 0 0 0 0 0 0 0 0 0 0 0 0 0 0 0 0 0 0 0 0 0 0 0 0 0 0 0 0 0 0 0 0 0 0 0 0 0 0 0 0 0 0
CIN
-7 0 0 0 -1 0 0 0 -19 0 0 0 0 0 0 0 0 0 0 0 0 0 0 0 0 0 0 0 0 0 0 0 0 0 0 0 0 0 0 0 0 0 0 0
0 -2 0 0 -2 -3 -5 -7 -7 0 0 -3 0 0 0 0 0 0 0 0 0 0 0 0 0 0 0 0 0 0 0 0 0 0 0 0 0 0 0 0 0 0 0 0
-4 -7 -2 0 0 -36 -37 -1 -4 0 0 0 0 0 0 0 0 0 0 0 0 0 0 0 0 0 0 0 0 0 0 0 0 0 0 0 0 0 0 0 0 0 0 0
-15 0 -12 0 0 -7 -55 -2 -3 -12 -13 0 0 0 0 0 0 0 0 0 0 0 0 0 0 0 0 0 0 0 0 0 0 0 0 0 0 0 0 0 0 0 0 0
0 0 -3 0 0 -3 -1 -17 -24 0 -1 0 0 0 0 0 0 0 0 0 0 0 0 0 0 0 0 0 0 0 0 0 0 0 0 0 0 0 0 0 0 0 0 0
0 0 0 -17 -13 -1 -5 0 -8 -58 -14 -15 0 0 0 0 0 0 0 0 0 0 0 0 0 0 0 0 0 0 0 0 0 0 0 0 0 0 0 0 0 0 0 0
0 0 0 -13 -26 -3 -7 -23 -36 -29 -20 -1 0 0 0 0 -1 0 0 0 0 0 0 0 0 0 0 0 0 0 0 0 0 0 0 0 0 0 0 0 0 0 0 0
0 0 -3 -2 -12 -14 -5 -29 -8 -7 0 -3 0 0 0 0 0 0 0 0 0 0 0 0 0 0 0 0 0 0 0 0 0 0 0 0 0 0 0 0 0 0 0 0
0 0 0 0 -7 -17 -11 -14 -27 -18 0 0 0 -3 0 0 0 0 0 0 0 0 0 0 0 0 0 0 0 0 0 0 0 0 0 0 0 0 0 0 0 0 0 0
0 0 0 0 -4 -3 -11 -7 0 -8 0 0 -4 -1 0 0 0 0 0 0 0 0 0 0 0 0 0 0 0 0 0 0 0 0 0 0 0 0 0 0 0 0 0 0
0 0 0 -14 0 -4 -10 0 0 -2 0 0 0 0 0 0 0 0 0 0 0 0 0 0 0 0 0 0 0 0 0 0 0 0 0 0 0 0 0 0 0 0 0 0
0 0 0 -4 0 -3 -5 0 0 0 0 0 0 0 0 0 0 0 0 0 0 0 0 0 0 0 0 0 0 0 0 0 0 0 0 0 0 0 0 0 0 0 0 0
0 0 0 -3 -1 -14 -6 0 0 0 0 0 0 0 0 0 0 0 0 0 0 0 0 0 0 0 0 0 0 0 0 0 0 0 0 0 0 0 0 0 0 0 0 0
-1 -4 -1 -5 -31 -36 0 0 0 0 0 -8 0 0 0 0 0 0 0 0 0 0 0 0 0 0 0 0 0 0 0 0 0 0 0 0 0 0 0 0 0 0 0 0
-19 -5 0 -23 -8 -1 0 0 0 0 0 0 0 0 0 0 0 0 0 0 0 0 0 0 0 0 0 0 0 0 0 0 0 0 0 0 0 0 0 0 0 0 0 0
-46 -50 -30 -3 -1 0 0 0 0 0 0 0 0 0 0 0 0 0 0 0 0 0 0 0 0 0 0 0 0 0 0 0 0 0 0 0 0 0 0 0 0 0 0 0
0 0 0 0 0 0 0 0 0 0 0 0 0 0 0 0 0 0 0 0 0 0 0 0 0 0 0 0 0 0 0 0 0 0 0 0 0 0 0 0 0 0 0 0
0 0 0 0 0 0 0 0 0 0 0 0 0 0 0 0 0 0 0 0 0 0 0 0 0 0 0 0 0 0 0 0 0 0 0 0 0 0 0 0 0 0 0 0
0 0 0 0 0 0 0 0 0 0 0 0 0 0 0 0 0 0 0 0 0 0 0 0 0 0 0 0 0 0 0 0 0 0 0 0 0 0 0 0 0 0 0 0
0 0 0 0 0 0 0 0 0 0 0 0 0 0 0 0 0 0 0 0 0 0 0 0 0 0 0 0 0 0 0 0 0 0 0 0 0 0 0 0 0 0 0 0
0 0 0 0 0 0 0 0 0 0 0 0 0 0 0 0 0 0 0 0 0 0 0 0 0 0 0 0 0 0 0 0 0 0 0 0 0 0 0 0 0 0 0 0
0 0 0 0 0 0 0 0 0 0 0 0 0 0 0 0 0 0 0 0 0 0 0 0 0 0 0 0 0 0 0 0 0 0 0 0 0 0 0 0 0 0 0 0
0 0 0 0 0 0 0 0 0 0 0 0 0 0 0 0 0 0 0 0 0 0 0 0 0 0 0 0 0 0 0 0 0 0 0 0 0 0 0 0 0 0 0 0
0 0 0 0 0 0 0 0 0 0 0 0 0 0 0 0 0 0 0 0 0 0 0 0 0 0 0 0 0 0 0 0 0 0 0 0 0 0 0 0 0 0 0 0
0 0 0 0 0 0 0 0 0 0 0 0 0 0 0 0 0 0 0 0 0 0 0 0 0 0 0 0 0 0 0 0 0 0 0 0 0 0 0 0 0 0 0 0
0 0 0 0 0 0 0 0 0 0 0 0 0 0 0 0 0 0 0 0 0 0 0 0 0 0 0 0 0 0 0 0 0 0 0 0 0 0 0 0 0 0 0 0
0 0 0 0 0 0 0 0 0 0 0 0 0 0 0 0 0 0 0 0 0 0 0 0 0 0 0 0 0 0 0 0 0 0 0 0 0 0 0 0 0 0 0 0
Wind_Speed
35 35 34 33 31 21 25 29 36 23 20 32 32 37 35 37 40 36 38 42 45 42 38 38 37 37 33 21 20 26 23 27 34 31 26 25 28 29 26 31 35 34 37 44
34 33 33 31 28 20 25 32 33 26 25 43 40 40 42 40 41 41 36 40 41 43 46 47 44 41 34 27 25 25 21 31 38 37 34 30 32 31 30 31 32 38 39 40
36 34 32 31 29 18 22 28 35 29 28 32 38 42 45 46 38 42 41 45 48 49 54 46 45 42 35 30 30 28 25 33 38 46 39 28 34 33 30 31 38 38 39 40
34 32 29 28 26 17 21 26 31 28 34 33 30 31 36 43 45 39 37 40 44 48 50 49 53 48 42 35 33 32 31 42 39 41 38 37 38 37 32 34 36 39 43 40
32 32 27 25 22 15 22 28 28 26 31 32 38 36 38 40 42 37 44 46 40 40 46 48 47 42 42 44 36 35 33 41 38 43 38 40 45 40 36 36 38 42 46 50
29 28 26 23 21 14 21 21 22 27 31 32 33 35 34 38 37 40 40 41 40 40 41 41 44 40 38 36 37 37 37 38 44 52 42 44 54 46 43 42 40 40 46 45
28 27 26 23 21 15 20 19 19 25 32 28 33 34 34 39 37 40 43 40 39 34 26 26 29 32 36 36 36 33 37 37 36 42 37 51 40 33 34 38 39 34 36 32
26 27 26 26 21 17 19 20 21 24 33 32 34 34 35 38 35 37 39 37 34 27 29 32 34 33 33 32 31 34 33 34 39 42 43 45 41 34 31 29 31 28 27 23
25 25 27 30 21 19 17 19 18 20 27 29 25 30 30 34 36 36 33 28 26 27 30 32 34 37 33 32 28 26 26 26 32 32 40 45 31 24 20 22 35 24 20 16
25 24 26 25 27 13 13 17 17 21 25 26 26 30 29 27 30 35 35 29 28 27 31 33 35 35 27 33 31 29 27 28 31 32 35 33 25 21 19 32 31 19 15 12
24 25 25 24 28 24 15 17 17 18 23 26 24 24 28 28 29 33 30 32 29 28 32 31 31 29 27 28 28 29 28 26 29 29 34 40 20 19 26 25 20 16 11 10
23 24 24 24 24 22 16 21 18 17 21 23 21 20 21 23 23 25 26 29 28 24 28 28 28 29 27 28 34 22 28 23 26 24 26 20 16 20 19 18 14 13 11 11
22 19 21 20 19 21 17 20 14 16 20 25 24 25 24 22 23 22 29 28 27 26 25 27 27 31 25 30 30 28 26 24 27 26 25 21 18 20 19 17 15 12 11 11
34 23 7 6 7 16 11 16 12 16 18 23 23 21 24 22 22 21 19 24 24 26 25 26 27 29 24 27 26 27 26 24 27 28 26 24 22 19 19 16 13 12 12 13
28 29 7 6 3 4 10 14 18 17 15 20 19 18 21 22 21 21 22 21 22 23 26 26 27 25 27 27 27 28 28 29 29 31 26 25 24 17 15 14 13 12 11 14
20 20 12 3 6 3 13 20 20 16 13 18 20 19 19 22 21 21 22 22 21 21 21 23 23 22 25 27 28 26 26 25 24 26 23 24 24 17 14 13 13 12 13 13
16 15 13 8 5 7 12 15 12 11 12 15 18 20 19 21 20 20 21 20 20 20 20 22 23 23 22 25 28 31 28 27 25 24 26 26 22 20 14 11 11 10 11 11
15 14 15 13 11 8 12 14 13 13 13 15 17 20 20 22 21 21 22 21 20 21 20 20 22 21 22 25 29 30 29 28 25 27 25 22 18 14 11 9 8 10 10 11
12 13 12 13 13 13 11 11 14 15 15 16 18 20 23 23 21 21 21 21 22 22 22 22 22 22 23 26 32 31 29 27 27 27 23 19 15 12 10 9 10 10 11 11
11 13 14 14 13 13 12 15 16 17 19 19 18 18 19 22 20 20 21 21 20 21 22 21 20 19 23 29 32 30 29 27 25 23 22 19 16 13 12 11 12 12 11 12
14 14 14 11 14 14 16 16 17 18 17 19 19 19 20 22 21 21 21 20 21 22 23 21 21 23 31 33 32 28 26 23 20 20 20 17 17 15 12 12 13 14 14 15
13 12 12 13 15 15 15 16 17 18 18 21 21 22 21 21 20 20 22 22 21 24 23 21 23 27 32 32 31 28 25 23 21 20 20 20 20 17 14 15 15 16 17 18
11 12 11 13 14 14 15 18 20 20 23 24 25 23 22 21 22 21 21 22 23 20 23 24 23 29 31 31 30 28 25 23 21 21 20 21 20 19 18 19 19 18 19 19
11 11 12 13 15 16 19 21 22 23 24 27 25 23 23 22 22 21 21 20 20 22 22 23 27 31 32 30 28 27 27 26 25 24 24 24 25 24 24 23 23 22 23 23
10 12 14 16 18 20 22 22 23 24 25 24 23 22 22 23 22 21 20 21 22 22 23 24 30 31 31 30 30 30 29 29 29 29 29 29 29 29 29 28 27 26 26 26
12 16 17 19 21 24 25 26 26 25 26 21 21 22 22 24 22 22 24 22 23 24 27 29 31 33 33 32 33 33 33 33 33 33 33 33 33 33 33 32 31 30 28 28
17 19 21 22 22 25 26 27 28 26 24 24 23 25 24 22 23 24 23 25 28 31 32 32 34 35 36 36 36 36 36 37 37 37 37 37 36 35 35 36 34 30 28 27
Wind_Direction
314 314 313 313 314 314 307 303 297 310 305 295 290 287 289 292 287 291 287 282 280 282 283 280 279 278 281 287 283 276 273 282 278 278 287 284 279 279 274 280 287 288 290 290
313 314 314 313 314 307 306 298 296 302 298 290 287 288 287 287 285 282 288 282 280 278 278 279 277 279 283 277 272 276 269 277 278 281 283 282 279 275 276 281 288 281 286 292
313 311 312 311 310 299 303 300 295 299 295 293 292 290 286 285 286 285 280 281 280 280 274 275 278 279 283 279 273 275 269 272 272 275 284 288 280 276 270 271 279 281 274 287
317 313 313 314 313 298 303 296 295 296 295 296 294 296 292 290 287 284 283 284 281 277 276 274 270 276 279 281 278 274 271 272 275 278 284 283 284 282 271 265 267 278 286 284
316 315 311 314 312 297 292 295 294 297 294 293 292 293 297 292 294 288 284 277 289 286 277 271 276 276 274 273 280 274 275 274 279 278 284 283 281 282 282 276 278 278 284 287
313 314 311 309 310 293 292 298 296 295 295 295 293 291 292 296 295 293 287 284 285 287 288 285 279 276 276 278 276 272 275 274 276 276 282 285 281 279 276 280 281 281 281 288
309 309 306 301 301 288 286 296 298 294 291 288 292 295 295 294 293 292 290 286 283 290 305 306 297 283 278 276 275 276 276 274 277 280 282 277 287 294 292 284 285 284 286 290
306 307 305 298 291 290 286 287 290 293 291 294 295 296 296 295 294 292 295 291 291 298 293 295 293 288 285 283 284 276 277 275 278 277 278 286 287 290 293 293 294 294 288 291
304 306 303 299 287 287 284 284 287 294 296 294 302 303 301 298 296 292 294 305 304 297 289 283 286 283 286 286 293 292 282 286 277 282 281 282 297 303 304 304 291 301 296 293
304 303 303 300 300 279 285 291 282 290 292 296 302 302 302 304 300 293 289 298 299 296 287 280 278 284 292 284 289 290 286 283 278 281 284 293 299 306 310 294 299 309 305 302
304 304 302 294 279 288 294 293 285 286 292 296 304 307 305 304 302 294 295 295 297 296 282 282 282 281 286 290 292 291 288 286 285 285 287 287 306 307 299 307 314 315 318 320
306 305 301 293 286 283 285 286 288 293 293 301 311 316 315 311 313 309 301 295 298 297 291 291 291 289 289 290 288 300 291 295 296 295 299 312 315 315 317 321 319 320 321 321
309 309 304 298 286 278 276 280 284 300 298 299 302 305 310 315 313 315 302 298 298 295 299 296 293 287 295 288 289 295 297 302 299 301 303 308 310 318 321 322 320 326 333 329
267 228 231 272 283 283 264 275 282 300 305 301 306 316 311 322 318 317 316 308 308 300 298 294 292 291 299 295 300 298 303 307 301 300 305 310 310 309 317 322 327 331 336 330
301 293 295 202 208 285 279 284 291 296 299 309 314 321 323 331 329 322 318 315 311 306 297 293 293 300 300 300 299 298 306 302 299 300 310 312 316 312 315 316 318 325 328 327
344 340 341 82 117 117 285 285 288 296 315 310 311 320 326 325 330 328 322 319 314 310 307 303 307 311 306 299 297 310 314 312 313 308 316 320 321 321 320 318 321 325 329 332
8 14 18 21 358 305 286 293 317 328 324 316 318 320 334 335 338 336 330 333 324 319 314 309 308 310 313 305 297 309 316 316 317 318 318 315 319 316 320 323 328 343 347 348
33 40 41 38 32 353 306 308 314 330 340 335 326 323 329 335 334 332 333 330 330 327 323 322 317 318 316 306 313 315 317 317 320 320 321 319 324 330 331 337 339 337 337 339
38 38 18 347 325 314 324 346 350 335 331 335 336 330 326 331 335 336 337 335 325 328 320 318 320 318 314 318 314 314 315 316 315 318 325 328 328 330 332 332 332 331 333 337
336 328 334 345 317 277 330 327 331 335 331 333 337 342 341 340 347 346 344 345 341 331 331 333 328 325 327 323 318 317 315 316 319 320 321 326 327 327 328 328 330 332 334 336
312 313 330 26 309 344 332 324 325 316 332 325 333 343 343 347 344 343 345 344 340 333 329 328 327 322 324 326 324 326 325 324 327 329 328 328 328 324 326 327 328 330 331 329
346 21 13 326 310 304 319 317 316 326 333 320 333 337 346 348 352 348 345 340 340 328 333 328 321 327 329 331 330 330 331 329 328 329 330 329 328 328 324 323 323 323 325 327
297 323 308 275 279 320 323 324 328 334 321 324 327 338 345 350 352 350 349 343 336 342 330 322 327 329 330 332 333 333 334 333 331 328 329 330 330 331 326 322 321 321 320 322
283 295 321 313 319 327 326 326 326 330 330 323 333 343 346 347 348 351 346 346 346 335 331 328 331 329 330 334 336 336 334 334 330 326 323 321 321 319 319 319 319 317 315 316
300 309 337 338 338 345 352 355 349 347 341 341 343 344 345 346 346 351 350 343 339 340 334 335 330 328 329 330 330 329 329 328 326 324 321 318 317 315 313 315 315 314 313 313
320 337 341 342 348 343 345 344 344 353 346 354 352 347 346 345 348 347 342 338 335 335 334 331 329 326 324 323 323 322 322 321 319 319 317 316 315 313 312 313 313 312 311 311
338 339 345 351 354 353 353 356 350 354 354 349 351 345 343 347 344 341 344 334 330 328 326 326 323 321 319 320 319 319 318 316 316 315 314 313 313 313 312 310 312 312 311 309